This demonstration page uses our WeatherBlox Daily Observations layout. Learn more.

Hourly Observations for June 18, 2019

Temp ( °F °C ) Dew Point ( °F °C ) Humidity (%) Winds ( mph kmh ) Pressure ( in mb ) Visibility ( mi km ) Precip ( " mm )
12:15 am 00:15 Cloudy with Rain 63 17.1 63 17.1 100 100 NNE 8 13 29.97 1015 10 16.09344 0 0
12:35 am 00:35 Cloudy with Light Rain 63 17.1 63 17.1 100 100 NE 7 11 29.97 1015 10 16.09344 0.02 0.508
12:55 am 00:55 Cloudy with Light Rain 63 17.1 63 17.1 100 100 ENE 3 6 29.97 1015 10 16.09344 0.02 0.508
1:15 am 01:15 Cloudy with Drizzle 63 17.2 63 17.2 100 100 E 7 11 29.97 1015 10 16.09344 0 0
1:30 am 01:30 Cloudy 63 17.2 63 17.2 100 100 ENE 7 11 29.94 1014 10 16.09344 0 0
1:55 am 01:55 Cloudy with Light Drizzle 63 17.2 63 17.1 99 99 ENE 3 6 29.94 1014 10 16.09344 0 0
2:15 am 02:15 Cloudy 63 17.2 63 17.2 100 100 ENE 3 6 29.94 1014 10 16.09344 0 0
2:35 am 02:35 Cloudy 63 17.2 63 17.1 99 99 Calm 29.94 1014 10 16.09344 0 0
2:55 am 02:55 Mostly Cloudy 63 17 63 17 100 100 Calm 29.94 1014 10 16.09344 0 0
3:15 am 03:15 Cloudy 63 17 63 17 100 100 Calm 29.94 1014 10 16.09344 0 0
3:35 am 03:35 Cloudy 63 17 63 17 100 100 Calm 29.94 1014 10 16.09344 0 0
3:55 am 03:55 Cloudy 63 17 63 17 100 100 Calm 29.94 1014 10 16.09344 0 0
4:15 am 04:15 Cloudy with Light Rain 63 17.1 63 17.1 100 100 Calm 29.94 1014 10 16.09344 0 0
4:35 am 04:35 Cloudy with Heavy Rain 63 17.1 63 17.1 100 100 W 3 6 29.94 1014 5 8.04672 0.06 1.524
4:55 am 04:55 Cloudy with Heavy Rain 63 17 63 17 100 100 WNW 5 7 29.94 1014 5 8.04672 0.16 4.064
5:15 am 05:15 Cloudy with Rain 63 17 63 17 100 100 Calm 29.94 1014 5 8.04672 0.06 1.524
5:35 am 05:35 Cloudy with Rain 62 16.9 62 16.9 100 100 NNW 3 6 29.94 1014 5 8.04672 0.12 3.048
5:55 am 05:55 Cloudy with Rain 62 16.6 62 16.6 100 100 N 5 7 29.94 1014 5 8.04672 0.17 4.318
6:15 am 06:15 Cloudy with Rain 62 16.5 62 16.5 100 100 Calm 29.94 1014 7 11.265408 0.03 0.762
6:35 am 06:35 Cloudy with Rain 62 16.5 62 16.5 100 100 N 3 6 29.94 1014 5 8.04672 0.07 1.778
6:55 am 06:55 Cloudy with Rain 62 16.5 62 16.5 100 100 NE 5 7 29.94 1014 5 8.04672 0.12 3.048
7:15 am 07:15 Cloudy with Light Rain 62 16.5 62 16.5 100 100 NE 7 11 29.94 1014 7 11.265408 0.02 0.508
7:35 am 07:35 Cloudy with Light Rain 62 16.5 62 16.5 100 100 NNE 8 13 29.94 1014 5 8.04672 0.04 1.016
7:55 am 07:55 Cloudy with Light Rain 62 16.8 62 16.8 100 100 NE 9 15 29.94 1014 5 8.04672 0.05 1.27
8:15 am 08:15 Cloudy with Drizzle 62 16.8 62 16.8 100 100 NE 10 17 29.94 1014 7 11.265408 0.01 0.254
8:35 am 08:35 Cloudy with Light Rain 62 16.8 62 16.8 100 100 ENE 10 17 29.94 1014 7 11.265408 0.02 0.508
8:55 am 08:55 Cloudy with Light Rain 63 17 63 17 100 100 NNE 10 17 29.91 1013 5 8.04672 0.06 1.524
9:15 am 09:15 Cloudy with Light Rain 63 17 63 17 100 100 NNE 10 17 29.91 1013 7 11.265408 0.01 0.254
9:35 am 09:35 Cloudy with Light Rain 63 17.1 63 17.1 100 100 NE 13 20 29.91 1013 10 16.09344 0.01 0.254
9:55 am 09:55 Cloudy with Light Rain 63 17.2 63 17.2 100 100 NE 9 15 29.91 1013 10 16.09344 0.01 0.254
10:15 am 10:15 Cloudy with Light Rain 63 17.1 63 17.1 100 100 NE 13 20 29.94 1014 7 11.265408 0 0
10:35 am 10:35 Cloudy with Drizzle 63 17.1 63 17.1 100 100 NE 14 22 29.94 1014 10 16.09344 0.01 0.254
10:55 am 10:55 Cloudy with Light Drizzle 64 17.5 63 17.3 99 99 NE 13 20 29.94 1014 10 16.09344 0.01 0.254
11:15 am 11:15 Cloudy with Drizzle 64 17.5 64 17.5 100 100 NE 12 19 29.94 1014 10 16.09344 0.01 0.254
11:35 am 11:35 Cloudy with Light Drizzle 64 17.5 63 17.4 99 99 NE 8 13 29.94 1014 10 16.09344 0.01 0.254
11:55 am 11:55 Cloudy with Light Rain 64 17.5 64 17.5 100 100 Calm 29.94 1014 7 11.265408 0.01 0.254
12:15 pm 12:15 Cloudy with Light Rain 64 17.5 64 17.5 100 100 NE 6 9 29.94 1014 5 8.04672 0.01 0.254
12:35 pm 12:35 Cloudy with Rain 63 17.4 63 17.4 100 100 NNE 3 6 29.94 1014 4 6.437376 0.06 1.524
12:55 pm 12:55 Cloudy with Rain 63 17.3 63 17.3 100 100 NE 9 15 29.94 1014 3 4.828032 0.14 3.556
1:15 pm 13:15 Cloudy with Rain 64 17.7 64 17.7 100 100 NE 9 15 29.91 1013 5 8.04672 0.03 0.762
1:35 pm 13:35 Cloudy with Rain 64 17.7 64 17.7 100 100 ENE 9 15 29.91 1013 7 11.265408 0.04 1.016
1:55 pm 13:55 Cloudy with Light Rain 64 17.9 64 17.6 98 98 NE 8 13 29.91 1013 10 16.09344 0.05 1.27
2:15 pm 14:15 Cloudy with Light Rain 64 18 64 17.6 98 98 ENE 9 15 29.91 1013 10 16.09344 0.01 0.254
2:35 pm 14:35 Cloudy with Light Rain 64 17.7 63 17.3 98 98 NE 10 17 29.91 1013 7 11.265408 0.03 0.762
2:55 pm 14:55 Cloudy with Light Rain 64 17.8 64 17.5 98 98 NE 9 15 29.91 1013 7 11.265408 0.05 1.27
3:15 pm 15:15 Cloudy with Light Rain 64 17.7 64 17.5 99 99 ENE 8 13 29.91 1013 10 16.09344 0.01 0.254
3:35 pm 15:35 Cloudy with Light Rain 64 17.7 64 17.5 99 99 ENE 12 19 29.88 1012 10 16.09344 0.03 0.762
3:55 pm 15:55 Cloudy with Light Rain 64 17.7 63 17.3 98 98 ENE 8 13 29.88 1012 10 16.09344 0.04 1.016
4:15 pm 16:15 Cloudy with Light Rain 64 17.8 64 17.6 99 99 E 10 17 29.88 1012 10 16.09344 0.01 0.254
4:35 pm 16:35 Cloudy with Light Drizzle 65 18.1 64 17.7 98 98 ENE 8 13 29.88 1012 10 16.09344 0.02 0.508
4:55 pm 16:55 Cloudy 65 18.3 64 17.8 97 97 ENE 10 17 29.88 1012 10 16.09344 0.02 0.508
5:15 pm 17:15 Cloudy 65 18.5 64 17.6 95 95 ENE 10 17 29.88 1012 10 16.09344 0 0
5:35 pm 17:35 Cloudy 65 18.2 64 17.6 96 96 ENE 9 15 29.88 1012 10 16.09344 0 0
5:55 pm 17:55 Cloudy with Light Rain 64 17.8 64 17.5 98 98 NE 9 15 29.88 1012 10 16.09344 0.01 0.254
6:15 pm 18:15 Cloudy 64 17.5 63 17.2 98 98 ENE 9 15 29.88 1012 10 16.09344 0 0
6:35 pm 18:35 Cloudy with Rain 63 17.1 63 17 99 99 NE 13 20 29.88 1012 7 11.265408 0 0
6:55 pm 18:55 Cloudy with Light Drizzle 61 16 61 16 100 100 NE 13 20 29.88 1012 4 6.437376 0.01 0.254
7:15 pm 19:15 Cloudy with Light Rain 61 16 61 16 100 100 NNE 10 17 29.88 1012 4 6.437376 0.01 0.254
7:35 pm 19:35 Cloudy with Light Drizzle 61 16.1 61 16.1 100 100 NE 15 24 29.88 1012 5 8.04672 0.01 0.254
7:55 pm 19:55 Cloudy 60 15.7 60 15.7 100 100 NE 12 19 29.88 1012 10 16.09344 0.01 0.254
8:15 pm 20:15 Cloudy 60 15.5 60 15.5 100 100 NE 14 22 29.88 1012 10 16.09344 0 0
8:35 pm 20:35 Cloudy 60 15.5 60 15.5 100 100 NNE 8 13 29.88 1012 10 16.09344 0 0
8:55 pm 20:55 Cloudy 60 15.4 59 15.2 99 99 NE 9 15 29.88 1012 10 16.09344 0 0
9:15 pm 21:15 Cloudy 59 15.2 59 15.1 99 99 NE 9 15 29.91 1013 10 16.09344 0 0
9:35 pm 21:35 Cloudy 59 15.2 59 15 99 99 NNE 9 15 29.91 1013 10 16.09344 0 0
9:55 pm 21:55 Cloudy 59 15.1 59 15 99 99 NNE 7 11 29.91 1013 10 16.09344 0 0
10:15 pm 22:15 Cloudy 59 15.1 59 15 99 99 NE 8 13 29.91 1013 10 16.09344 0 0
10:35 pm 22:35 Cloudy 59 15 59 15 100 100 NE 7 11 29.91 1013 10 16.09344 0 0
10:55 pm 22:55 Cloudy 59 15 59 15 100 100 NNE 8 13 29.91 1013 10 16.09344 0 0
11:15 pm 23:15 Cloudy 58 14.7 58 14.7 100 100 NE 6 9 29.91 1013 10 16.09344 0 0
11:35 pm 23:35 Cloudy 59 15 59 15 100 100 NE 5 7 29.91 1013 10 16.09344 0 0
11:55 pm 23:55 Cloudy 59 14.8 59 14.8 100 100 NNE 7 11 29.91 1013 7 11.265408 0 0

Powered by AerisWeather